Tracking 34717 objects as of 14-Jul-2026
HD Live streaming from Space Station
objects crossing your sky now

STARLINK-11350

Track STARLINK-11350 now!
10-day predictions
STARLINK-11350 is classified as:


NORAD ID: 61540
Int'l Code: 2024-184J
Perigee: 366.4 km
Apogee: 367.5 km
Inclination: 53.2 °
Period: 91.7 minutes
Semi major axis: 6737 km
RCS: Unknown
Launch date: October 15, 2024
Source: United States (US)
Launch site: AIR FORCE WESTERN TEST RANGE (AFWTR)
Your satellite tracking list
Your tracking list is empty




NASA's NSSDC Master Catalog

Two Line Element Set (TLE):
1 61540U 24184J   26194.63610934 -.00001909  00000-0 -10918-4 0  9993
2 61540  53.1588 335.0227 0000768  86.6758 273.4348 15.69684658100203
Source of the keplerian elements: AFSPC